owner,sensor,date,latitude,longitude,vertical_datum,sea_water_temperature,qcFlag 
DISL,ioos:station:DISL:BSCA:1,2011-10-01T00:00:00Z,30.3288,-87.8293,0.0,26.91,2 
DISL,ioos:station:DISL:BSCA:1,2011-10-01T00:30:00Z,30.3288,-87.8293,0.0,26.83,2 
DISL,ioos:station:DISL:BSCA:1,2011-10-01T01:00:00Z,30.3288,-87.8293,0.0,26.7,2 
DISL,ioos:station:DISL:BSCA:1,2011-10-01T01:30:00Z,30.3288,-87.8293,0.0,26.66,2 
DISL,ioos:station:DISL:BSCA:1,2011-10-01T02:00:00Z,30.3288,-87.8293,0.0,26.66,2 
DISL,ioos:station:DISL:BSCA:1,2011-10-01T02:30:00Z,30.3288,-87.8293,0.0,26.58,2 
DISL,ioos:station:DISL:BSCA:1,2011-10-01T03:00:00Z,30.3288,-87.8293,0.0,26.47,2 
DISL,ioos:station:DISL:BSCA:1,2011-10-01T03:30:00Z,30.3288,-87.8293,0.0,26.32,2 
DISL,ioos:station:DISL:BSCA:1,2011-10-01T04:00:00Z,30.3288,-87.8293,0.0,26.2,2 
DISL,ioos:station:DISL:BSCA:1,2011-10-01T04:30:00Z,30.3288,-87.8293,0.0,26.08,2 
DISL,ioos:station:DISL:BSCA:1,2011-10-01T05:00:00Z,30.3288,-87.8293,0.0,26.04,2 
DISL,ioos:station:DISL:BSCA:1,2011-10-01T05:30:00Z,30.3288,-87.8293,0.0,25.95,2 
DISL,ioos:station:DISL:BSCA:1,2011-10-01T06:00:00Z,30.3288,-87.8293,0.0,25.85,2 
DISL,ioos:station:DISL:BSCA:1,2011-10-01T06:30:00Z,30.3288,-87.8293,0.0,25.82,2 
DISL,ioos:station:DISL:BSCA:1,2011-10-01T07:00:00Z,30.3288,-87.8293,0.0,25.92,2 
DISL,ioos:station:DISL:BSCA:1,2011-10-01T07:30:00Z,30.3288,-87.8293,0.0,25.93,2 
DISL,ioos:station:DISL:BSCA:1,2011-10-01T08:00:00Z,30.3288,-87.8293,0.0,25.85,2 
DISL,ioos:station:DISL:BSCA:1,2011-10-01T08:30:00Z,30.3288,-87.8293,0.0,25.77,2 
DISL,ioos:station:DISL:BSCA:1,2011-10-01T09:00:00Z,30.3288,-87.8293,0.0,25.65,2 
DISL,ioos:station:DISL:BSCA:1,2011-10-01T09:30:00Z,30.3288,-87.8293,0.0,25.59,2 
DISL,ioos:station:DISL:BSCA:1,2011-10-01T10:00:00Z,30.3288,-87.8293,0.0,25.53,2 
DISL,ioos:station:DISL:BSCA:1,2011-10-01T10:30:00Z,30.3288,-87.8293,0.0,25.4,2 
DISL,ioos:station:DISL:BSCA:1,2011-10-01T11:00:00Z,30.3288,-87.8293,0.0,25.3,2 
DISL,ioos:station:DISL:BSCA:1,2011-10-01T11:30:00Z,30.3288,-87.8293,0.0,25.23,2 
DISL,ioos:station:DISL:BSCA:1,2011-10-01T12:00:00Z,30.3288,-87.8293,0.0,25.19,2 
DISL,ioos:station:DISL:BSCA:1,2011-10-01T12:30:00Z,30.3288,-87.8293,0.0,24.99,2 
DISL,ioos:station:DISL:BSCA:1,2011-10-01T13:00:00Z,30.3288,-87.8293,0.0,24.9,2 
DISL,ioos:station:DISL:BSCA:1,2011-10-01T13:30:00Z,30.3288,-87.8293,0.0,24.87,2 
DISL,ioos:station:DISL:BSCA:1,2011-10-01T14:00:00Z,30.3288,-87.8293,0.0,24.84,2 
DISL,ioos:station:DISL:BSCA:1,2011-10-01T14:30:00Z,30.3288,-87.8293,0.0,24.86,2 
DISL,ioos:station:DISL:BSCA:1,2011-10-01T15:00:00Z,30.3288,-87.8293,0.0,24.88,2 
DISL,ioos:station:DISL:BSCA:1,2011-10-01T15:30:00Z,30.3288,-87.8293,0.0,24.9,2 
DISL,ioos:station:DISL:BSCA:1,2011-10-01T16:00:00Z,30.3288,-87.8293,0.0,24.9,2 
DISL,ioos:station:DISL:BSCA:1,2011-10-01T16:30:00Z,30.3288,-87.8293,0.0,24.94,2 
DISL,ioos:station:DISL:BSCA:1,2011-10-01T17:00:00Z,30.3288,-87.8293,0.0,25.02,2 
DISL,ioos:station:DISL:BSCA:1,2011-10-01T17:30:00Z,30.3288,-87.8293,0.0,25.11,2 
DISL,ioos:station:DISL:BSCA:1,2011-10-01T18:00:00Z,30.3288,-87.8293,0.0,25.2,2 
DISL,ioos:station:DISL:BSCA:1,2011-10-01T18:30:00Z,30.3288,-87.8293,0.0,25.27,2 
DISL,ioos:station:DISL:BSCA:1,2011-10-01T19:00:00Z,30.3288,-87.8293,0.0,25.32,2 
DISL,ioos:station:DISL:BSCA:1,2011-10-01T19:30:00Z,30.3288,-87.8293,0.0,25.38,2 
DISL,ioos:station:DISL:BSCA:1,2011-10-01T20:00:00Z,30.3288,-87.8293,0.0,25.41,2 
DISL,ioos:station:DISL:BSCA:1,2011-10-01T20:30:00Z,30.3288,-87.8293,0.0,25.36,2 
DISL,ioos:station:DISL:BSCA:1,2011-10-01T21:00:00Z,30.3288,-87.8293,0.0,25.3,2 
DISL,ioos:station:DISL:BSCA:1,2011-10-01T21:30:00Z,30.3288,-87.8293,0.0,25.27,2 
DISL,ioos:station:DISL:BSCA:1,2011-10-01T22:00:00Z,30.3288,-87.8293,0.0,25.24,2 
DISL,ioos:station:DISL:BSCA:1,2011-10-01T22:30:00Z,30.3288,-87.8293,0.0,25.17,2 
DISL,ioos:station:DISL:BSCA:1,2011-10-01T23:00:00Z,30.3288,-87.8293,0.0,25.12,2 
DISL,ioos:station:DISL:BSCA:1,2011-10-01T23:30:00Z,30.3288,-87.8293,0.0,25.03,2 
DISL,ioos:station:DISL:BSCA:1,2011-10-02T00:00:00Z,30.3288,-87.8293,0.0,24.98,2 
DISL,ioos:station:DISL:BSCA:1,2011-10-02T00:30:00Z,30.3288,-87.8293,0.0,24.9,2 
DISL,ioos:station:DISL:BSCA:1,2011-10-02T01:00:00Z,30.3288,-87.8293,0.0,24.81,2 
DISL,ioos:station:DISL:BSCA:1,2011-10-02T01:30:00Z,30.3288,-87.8293,0.0,24.72,2 
DISL,ioos:station:DISL:BSCA:1,2011-10-02T02:00:00Z,30.3288,-87.8293,0.0,24.71,2 
DISL,ioos:station:DISL:BSCA:1,2011-10-02T02:30:00Z,30.3288,-87.8293,0.0,24.61,2 
DISL,ioos:station:DISL:BSCA:1,2011-10-02T03:00:00Z,30.3288,-87.8293,0.0,24.51,2 
DISL,ioos:station:DISL:BSCA:1,2011-10-02T03:30:00Z,30.3288,-87.8293,0.0,24.41,2 
DISL,ioos:station:DISL:BSCA:1,2011-10-02T04:00:00Z,30.3288,-87.8293,0.0,24.3,2 
DISL,ioos:station:DISL:BSCA:1,2011-10-02T04:30:00Z,30.3288,-87.8293,0.0,24.23,2 
DISL,ioos:station:DISL:BSCA:1,2011-10-02T05:00:00Z,30.3288,-87.8293,0.0,24.15,2 
DISL,ioos:station:DISL:BSCA:1,2011-10-02T05:30:00Z,30.3288,-87.8293,0.0,24.03,2 
DISL,ioos:station:DISL:BSCA:1,2011-10-02T06:00:00Z,30.3288,-87.8293,0.0,24.02,2 
DISL,ioos:station:DISL:BSCA:1,2011-10-02T06:30:00Z,30.3288,-87.8293,0.0,23.81,2 
DISL,ioos:station:DISL:BSCA:1,2011-10-02T07:00:00Z,30.3288,-87.8293,0.0,23.85,2 
DISL,ioos:station:DISL:BSCA:1,2011-10-02T07:30:00Z,30.3288,-87.8293,0.0,23.76,2 
DISL,ioos:station:DISL:BSCA:1,2011-10-02T08:00:00Z,30.3288,-87.8293,0.0,23.61,2 
DISL,ioos:station:DISL:BSCA:1,2011-10-02T08:30:00Z,30.3288,-87.8293,0.0,23.56,2 
DISL,ioos:station:DISL:BSCA:1,2011-10-02T09:00:00Z,30.3288,-87.8293,0.0,23.46,2 
DISL,ioos:station:DISL:BSCA:1,2011-10-02T09:30:00Z,30.3288,-87.8293,0.0,23.44,2 
DISL,ioos:station:DISL:BSCA:1,2011-10-02T10:00:00Z,30.3288,-87.8293,0.0,23.35,2 
DISL,ioos:station:DISL:BSCA:1,2011-10-02T10:30:00Z,30.3288,-87.8293,0.0,23.2,2 
DISL,ioos:station:DISL:BSCA:1,2011-10-02T11:00:00Z,30.3288,-87.8293,0.0,23.21,2 
DISL,ioos:station:DISL:BSCA:1,2011-10-02T11:30:00Z,30.3288,-87.8293,0.0,23.06,2 
DISL,ioos:station:DISL:BSCA:1,2011-10-02T12:00:00Z,30.3288,-87.8293,0.0,22.87,2 
DISL,ioos:station:DISL:BSCA:1,2011-10-02T12:30:00Z,30.3288,-87.8293,0.0,22.87,2 
DISL,ioos:station:DISL:BSCA:1,2011-10-02T13:00:00Z,30.3288,-87.8293,0.0,22.9,2 
DISL,ioos:station:DISL:BSCA:1,2011-10-02T13:30:00Z,30.3288,-87.8293,0.0,22.8,2 
DISL,ioos:station:DISL:BSCA:1,2011-10-02T14:00:00Z,30.3288,-87.8293,0.0,22.77,2 
DISL,ioos:station:DISL:BSCA:1,2011-10-02T14:30:00Z,30.3288,-87.8293,0.0,22.79,2 
DISL,ioos:station:DISL:BSCA:1,2011-10-02T15:00:00Z,30.3288,-87.8293,0.0,22.81,2 
DISL,ioos:station:DISL:BSCA:1,2011-10-02T15:30:00Z,30.3288,-87.8293,0.0,22.83,2 
DISL,ioos:station:DISL:BSCA:1,2011-10-02T16:00:00Z,30.3288,-87.8293,0.0,22.83,2 
DISL,ioos:station:DISL:BSCA:1,2011-10-02T16:30:00Z,30.3288,-87.8293,0.0,22.98,2 
DISL,ioos:station:DISL:BSCA:1,2011-10-02T17:00:00Z,30.3288,-87.8293,0.0,22.99,2 
DISL,ioos:station:DISL:BSCA:1,2011-10-02T17:30:00Z,30.3288,-87.8293,0.0,23.1,2 
DISL,ioos:station:DISL:BSCA:1,2011-10-02T18:00:00Z,30.3288,-87.8293,0.0,23.01,2 
DISL,ioos:station:DISL:BSCA:1,2011-10-02T18:30:00Z,30.3288,-87.8293,0.0,23.04,2 
DISL,ioos:station:DISL:BSCA:1,2011-10-02T19:00:00Z,30.3288,-87.8293,0.0,23.16,2 
DISL,ioos:station:DISL:BSCA:1,2011-10-02T19:30:00Z,30.3288,-87.8293,0.0,23.07,2 
DISL,ioos:station:DISL:BSCA:1,2011-10-02T20:00:00Z,30.3288,-87.8293,0.0,23.15,2 
DISL,ioos:station:DISL:BSCA:1,2011-10-02T20:30:00Z,30.3288,-87.8293,0.0,23.31,2 
DISL,ioos:station:DISL:BSCA:1,2011-10-02T21:00:00Z,30.3288,-87.8293,0.0,23.3,2 
DISL,ioos:station:DISL:BSCA:1,2011-10-02T21:30:00Z,30.3288,-87.8293,0.0,23.31,2 
DISL,ioos:station:DISL:BSCA:1,2011-10-02T22:00:00Z,30.3288,-87.8293,0.0,23.31,2 
DISL,ioos:station:DISL:BSCA:1,2011-10-02T22:30:00Z,30.3288,-87.8293,0.0,23.27,2 
DISL,ioos:station:DISL:BSCA:1,2011-10-02T23:00:00Z,30.3288,-87.8293,0.0,23.21,2 
DISL,ioos:station:DISL:BSCA:1,2011-10-02T23:30:00Z,30.3288,-87.8293,0.0,23.11,2 
DISL,ioos:station:DISL:BSCA:1,2011-10-03T00:00:00Z,30.3288,-87.8293,0.0,23.04,2 
DISL,ioos:station:DISL:BSCA:1,2011-10-03T00:30:00Z,30.3288,-87.8293,0.0,22.99,2 
DISL,ioos:station:DISL:BSCA:1,2011-10-03T01:00:00Z,30.3288,-87.8293,0.0,22.93,2 
DISL,ioos:station:DISL:BSCA:1,2011-10-03T01:30:00Z,30.3288,-87.8293,0.0,22.86,2 
DISL,ioos:station:DISL:BSCA:1,2011-10-03T02:00:00Z,30.3288,-87.8293,0.0,22.78,2 
DISL,ioos:station:DISL:BSCA:1,2011-10-03T02:30:00Z,30.3288,-87.8293,0.0,22.73,2 
DISL,ioos:station:DISL:BSCA:1,2011-10-03T03:00:00Z,30.3288,-87.8293,0.0,22.64,2 
DISL,ioos:station:DISL:BSCA:1,2011-10-03T03:30:00Z,30.3288,-87.8293,0.0,22.61,2 
DISL,ioos:station:DISL:BSCA:1,2011-10-03T04:00:00Z,30.3288,-87.8293,0.0,22.59,2 
DISL,ioos:station:DISL:BSCA:1,2011-10-03T04:30:00Z,30.3288,-87.8293,0.0,22.5,2 
DISL,ioos:station:DISL:BSCA:1,2011-10-03T05:00:00Z,30.3288,-87.8293,0.0,22.55,2 
DISL,ioos:station:DISL:BSCA:1,2011-10-03T05:30:00Z,30.3288,-87.8293,0.0,22.46,2 
DISL,ioos:station:DISL:BSCA:1,2011-10-03T06:00:00Z,30.3288,-87.8293,0.0,22.43,2 
DISL,ioos:station:DISL:BSCA:1,2011-10-03T06:30:00Z,30.3288,-87.8293,0.0,22.45,2 
DISL,ioos:station:DISL:BSCA:1,2011-10-03T07:00:00Z,30.3288,-87.8293,0.0,22.67,2 
DISL,ioos:station:DISL:BSCA:1,2011-10-03T07:30:00Z,30.3288,-87.8293,0.0,22.51,2 
DISL,ioos:station:DISL:BSCA:1,2011-10-03T08:00:00Z,30.3288,-87.8293,0.0,22.28,2 
DISL,ioos:station:DISL:BSCA:1,2011-10-03T08:30:00Z,30.3288,-87.8293,0.0,22.27,2 
DISL,ioos:station:DISL:BSCA:1,2011-10-03T09:00:00Z,30.3288,-87.8293,0.0,22.07,2 
DISL,ioos:station:DISL:BSCA:1,2011-10-03T09:30:00Z,30.3288,-87.8293,0.0,22.0,2 
DISL,ioos:station:DISL:BSCA:1,2011-10-03T10:00:00Z,30.3288,-87.8293,0.0,21.94,2 
DISL,ioos:station:DISL:BSCA:1,2011-10-03T10:30:00Z,30.3288,-87.8293,0.0,21.78,2 
DISL,ioos:station:DISL:BSCA:1,2011-10-03T11:00:00Z,30.3288,-87.8293,0.0,21.67,2 
DISL,ioos:station:DISL:BSCA:1,2011-10-03T11:30:00Z,30.3288,-87.8293,0.0,21.37,2 
DISL,ioos:station:DISL:BSCA:1,2011-10-03T12:00:00Z,30.3288,-87.8293,0.0,21.21,2 
DISL,ioos:station:DISL:BSCA:1,2011-10-03T12:30:00Z,30.3288,-87.8293,0.0,21.2,2 
DISL,ioos:station:DISL:BSCA:1,2011-10-03T13:00:00Z,30.3288,-87.8293,0.0,21.09,2 
DISL,ioos:station:DISL:BSCA:1,2011-10-03T13:30:00Z,30.3288,-87.8293,0.0,21.07,2 
DISL,ioos:station:DISL:BSCA:1,2011-10-03T14:00:00Z,30.3288,-87.8293,0.0,21.08,2 
DISL,ioos:station:DISL:BSCA:1,2011-10-03T14:30:00Z,30.3288,-87.8293,0.0,21.12,2 
DISL,ioos:station:DISL:BSCA:1,2011-10-03T15:00:00Z,30.3288,-87.8293,0.0,21.17,2 
DISL,ioos:station:DISL:BSCA:1,2011-10-03T15:30:00Z,30.3288,-87.8293,0.0,21.26,2 
DISL,ioos:station:DISL:BSCA:1,2011-10-03T16:00:00Z,30.3288,-87.8293,0.0,21.34,2 
DISL,ioos:station:DISL:BSCA:1,2011-10-03T16:30:00Z,30.3288,-87.8293,0.0,21.43,2 
DISL,ioos:station:DISL:BSCA:1,2011-10-03T17:00:00Z,30.3288,-87.8293,0.0,21.45,2 
DISL,ioos:station:DISL:BSCA:1,2011-10-03T17:30:00Z,30.3288,-87.8293,0.0,21.5,2 
DISL,ioos:station:DISL:BSCA:1,2011-10-03T18:00:00Z,30.3288,-87.8293,0.0,21.57,2 
DISL,ioos:station:DISL:BSCA:1,2011-10-03T18:30:00Z,30.3288,-87.8293,0.0,21.68,2 
DISL,ioos:station:DISL:BSCA:1,2011-10-03T19:00:00Z,30.3288,-87.8293,0.0,21.61,2 
DISL,ioos:station:DISL:BSCA:1,2011-10-03T19:30:00Z,30.3288,-87.8293,0.0,21.66,2 
DISL,ioos:station:DISL:BSCA:1,2011-10-03T20:00:00Z,30.3288,-87.8293,0.0,21.62,2 
DISL,ioos:station:DISL:BSCA:1,2011-10-03T20:30:00Z,30.3288,-87.8293,0.0,21.61,2 
DISL,ioos:station:DISL:BSCA:1,2011-10-03T21:00:00Z,30.3288,-87.8293,0.0,21.59,2 
DISL,ioos:station:DISL:BSCA:1,2011-10-03T21:30:00Z,30.3288,-87.8293,0.0,21.54,2 
DISL,ioos:station:DISL:BSCA:1,2011-10-03T22:00:00Z,30.3288,-87.8293,0.0,21.73,2 
DISL,ioos:station:DISL:BSCA:1,2011-10-03T22:30:00Z,30.3288,-87.8293,0.0,21.82,2 
DISL,ioos:station:DISL:BSCA:1,2011-10-03T23:00:00Z,30.3288,-87.8293,0.0,21.86,2 
DISL,ioos:station:DISL:BSCA:1,2011-10-03T23:30:00Z,30.3288,-87.8293,0.0,21.88,2 
DISL,ioos:station:DISL:BSCA:1,2011-10-04T00:00:00Z,30.3288,-87.8293,0.0,21.91,2 
DISL,ioos:station:DISL:BSCA:1,2011-10-04T00:30:00Z,30.3288,-87.8293,0.0,21.93,2 
DISL,ioos:station:DISL:BSCA:1,2011-10-04T01:00:00Z,30.3288,-87.8293,0.0,22.03,2 
DISL,ioos:station:DISL:BSCA:1,2011-10-04T01:30:00Z,30.3288,-87.8293,0.0,22.05,2 
DISL,ioos:station:DISL:BSCA:1,2011-10-04T02:00:00Z,30.3288,-87.8293,0.0,22.05,2 
DISL,ioos:station:DISL:BSCA:1,2011-10-04T02:30:00Z,30.3288,-87.8293,0.0,22.06,2 
DISL,ioos:station:DISL:BSCA:1,2011-10-04T03:00:00Z,30.3288,-87.8293,0.0,22.12,2 
DISL,ioos:station:DISL:BSCA:1,2011-10-04T03:30:00Z,30.3288,-87.8293,0.0,22.17,2 
DISL,ioos:station:DISL:BSCA:1,2011-10-04T04:00:00Z,30.3288,-87.8293,0.0,22.22,2 
DISL,ioos:station:DISL:BSCA:1,2011-10-04T04:30:00Z,30.3288,-87.8293,0.0,22.26,2 
DISL,ioos:station:DISL:BSCA:1,2011-10-04T05:00:00Z,30.3288,-87.8293,0.0,22.28,2 
DISL,ioos:station:DISL:BSCA:1,2011-10-04T05:30:00Z,30.3288,-87.8293,0.0,22.31,2 
DISL,ioos:station:DISL:BSCA:1,2011-10-04T06:00:00Z,30.3288,-87.8293,0.0,22.33,2 
DISL,ioos:station:DISL:BSCA:1,2011-10-04T06:30:00Z,30.3288,-87.8293,0.0,22.34,2 
DISL,ioos:station:DISL:BSCA:1,2011-10-04T07:00:00Z,30.3288,-87.8293,0.0,22.35,2 
DISL,ioos:station:DISL:BSCA:1,2011-10-04T07:30:00Z,30.3288,-87.8293,0.0,22.35,2 
DISL,ioos:station:DISL:BSCA:1,2011-10-04T08:00:00Z,30.3288,-87.8293,0.0,22.34,2 
DISL,ioos:station:DISL:BSCA:1,2011-10-04T08:30:00Z,30.3288,-87.8293,0.0,22.32,2 
DISL,ioos:station:DISL:BSCA:1,2011-10-04T09:00:00Z,30.3288,-87.8293,0.0,22.27,2 
DISL,ioos:station:DISL:BSCA:1,2011-10-04T09:30:00Z,30.3288,-87.8293,0.0,22.25,2 
DISL,ioos:station:DISL:BSCA:1,2011-10-04T10:00:00Z,30.3288,-87.8293,0.0,22.24,2 
DISL,ioos:station:DISL:BSCA:1,2011-10-04T10:30:00Z,30.3288,-87.8293,0.0,22.25,2 
DISL,ioos:station:DISL:BSCA:1,2011-10-04T11:00:00Z,30.3288,-87.8293,0.0,22.3,2 
DISL,ioos:station:DISL:BSCA:1,2011-10-04T11:30:00Z,30.3288,-87.8293,0.0,22.3,2 
DISL,ioos:station:DISL:BSCA:1,2011-10-04T12:00:00Z,30.3288,-87.8293,0.0,22.29,2 
DISL,ioos:station:DISL:BSCA:1,2011-10-04T12:30:00Z,30.3288,-87.8293,0.0,22.25,2 
DISL,ioos:station:DISL:BSCA:1,2011-10-04T13:00:00Z,30.3288,-87.8293,0.0,22.33,2 
DISL,ioos:station:DISL:BSCA:1,2011-10-04T13:30:00Z,30.3288,-87.8293,0.0,22.25,2 
DISL,ioos:station:DISL:BSCA:1,2011-10-04T14:00:00Z,30.3288,-87.8293,0.0,21.99,2 
DISL,ioos:station:DISL:BSCA:1,2011-10-04T14:30:00Z,30.3288,-87.8293,0.0,22.01,2 
DISL,ioos:station:DISL:BSCA:1,2011-10-04T15:00:00Z,30.3288,-87.8293,0.0,22.1,2 
DISL,ioos:station:DISL:BSCA:1,2011-10-04T15:30:00Z,30.3288,-87.8293,0.0,21.91,2 
DISL,ioos:station:DISL:BSCA:1,2011-10-04T16:00:00Z,30.3288,-87.8293,0.0,21.76,2 
DISL,ioos:station:DISL:BSCA:1,2011-10-04T16:30:00Z,30.3288,-87.8293,0.0,21.75,2 
DISL,ioos:station:DISL:BSCA:1,2011-10-04T17:00:00Z,30.3288,-87.8293,0.0,21.72,2 
DISL,ioos:station:DISL:BSCA:1,2011-10-04T17:30:00Z,30.3288,-87.8293,0.0,21.71,2 
DISL,ioos:station:DISL:BSCA:1,2011-10-04T18:00:00Z,30.3288,-87.8293,0.0,21.64,2 
DISL,ioos:station:DISL:BSCA:1,2011-10-04T18:30:00Z,30.3288,-87.8293,0.0,21.98,2 
DISL,ioos:station:DISL:BSCA:1,2011-10-04T19:00:00Z,30.3288,-87.8293,0.0,22.66,2 
DISL,ioos:station:DISL:BSCA:1,2011-10-04T19:30:00Z,30.3288,-87.8293,0.0,22.45,2 
DISL,ioos:station:DISL:BSCA:1,2011-10-04T20:00:00Z,30.3288,-87.8293,0.0,22.24,2 
DISL,ioos:station:DISL:BSCA:1,2011-10-04T20:30:00Z,30.3288,-87.8293,0.0,21.99,2 
DISL,ioos:station:DISL:BSCA:1,2011-10-04T21:00:00Z,30.3288,-87.8293,0.0,21.79,2 
DISL,ioos:station:DISL:BSCA:1,2011-10-04T21:30:00Z,30.3288,-87.8293,0.0,21.7,2 
DISL,ioos:station:DISL:BSCA:1,2011-10-04T22:00:00Z,30.3288,-87.8293,0.0,21.64,2 
DISL,ioos:station:DISL:BSCA:1,2011-10-04T22:30:00Z,30.3288,-87.8293,0.0,21.57,2 
DISL,ioos:station:DISL:BSCA:1,2011-10-04T23:00:00Z,30.3288,-87.8293,0.0,21.61,2 
DISL,ioos:station:DISL:BSCA:1,2011-10-04T23:30:00Z,30.3288,-87.8293,0.0,21.7,2 
DISL,ioos:station:DISL:BSCA:1,2011-10-05T00:00:00Z,30.3288,-87.8293,0.0,21.86,2 
DISL,ioos:station:DISL:BSCA:1,2011-10-05T00:30:00Z,30.3288,-87.8293,0.0,21.76,2 
DISL,ioos:station:DISL:BSCA:1,2011-10-05T01:00:00Z,30.3288,-87.8293,0.0,21.76,2 
DISL,ioos:station:DISL:BSCA:1,2011-10-05T01:30:00Z,30.3288,-87.8293,0.0,22.04,2 
DISL,ioos:station:DISL:BSCA:1,2011-10-05T02:00:00Z,30.3288,-87.8293,0.0,22.18,2 
DISL,ioos:station:DISL:BSCA:1,2011-10-05T02:30:00Z,30.3288,-87.8293,0.0,22.3,2 
DISL,ioos:station:DISL:BSCA:1,2011-10-05T03:00:00Z,30.3288,-87.8293,0.0,22.24,2 
DISL,ioos:station:DISL:BSCA:1,2011-10-05T03:30:00Z,30.3288,-87.8293,0.0,22.18,2 
DISL,ioos:station:DISL:BSCA:1,2011-10-05T04:00:00Z,30.3288,-87.8293,0.0,22.1,2 
DISL,ioos:station:DISL:BSCA:1,2011-10-05T04:30:00Z,30.3288,-87.8293,0.0,22.05,2 
DISL,ioos:station:DISL:BSCA:1,2011-10-05T05:00:00Z,30.3288,-87.8293,0.0,22.02,2 
DISL,ioos:station:DISL:BSCA:1,2011-10-05T05:30:00Z,30.3288,-87.8293,0.0,21.92,2 
DISL,ioos:station:DISL:BSCA:1,2011-10-05T06:00:00Z,30.3288,-87.8293,0.0,21.92,2 
DISL,ioos:station:DISL:BSCA:1,2011-10-05T06:30:00Z,30.3288,-87.8293,0.0,21.76,2 
DISL,ioos:station:DISL:BSCA:1,2011-10-05T07:00:00Z,30.3288,-87.8293,0.0,21.62,2 
DISL,ioos:station:DISL:BSCA:1,2011-10-05T07:30:00Z,30.3288,-87.8293,0.0,21.82,2 
DISL,ioos:station:DISL:BSCA:1,2011-10-05T08:00:00Z,30.3288,-87.8293,0.0,21.93,2 
DISL,ioos:station:DISL:BSCA:1,2011-10-05T08:30:00Z,30.3288,-87.8293,0.0,21.78,2 
DISL,ioos:station:DISL:BSCA:1,2011-10-05T09:00:00Z,30.3288,-87.8293,0.0,21.55,2 
DISL,ioos:station:DISL:BSCA:1,2011-10-05T09:30:00Z,30.3288,-87.8293,0.0,21.63,2 
DISL,ioos:station:DISL:BSCA:1,2011-10-05T10:00:00Z,30.3288,-87.8293,0.0,21.49,2 
DISL,ioos:station:DISL:BSCA:1,2011-10-05T10:30:00Z,30.3288,-87.8293,0.0,21.39,2 
DISL,ioos:station:DISL:BSCA:1,2011-10-05T11:00:00Z,30.3288,-87.8293,0.0,21.24,2 
DISL,ioos:station:DISL:BSCA:1,2011-10-05T11:30:00Z,30.3288,-87.8293,0.0,21.06,2 
DISL,ioos:station:DISL:BSCA:1,2011-10-05T12:00:00Z,30.3288,-87.8293,0.0,21.12,2 
DISL,ioos:station:DISL:BSCA:1,2011-10-05T12:30:00Z,30.3288,-87.8293,0.0,20.97,2 
DISL,ioos:station:DISL:BSCA:1,2011-10-05T13:00:00Z,30.3288,-87.8293,0.0,20.76,2 
DISL,ioos:station:DISL:BSCA:1,2011-10-05T13:30:00Z,30.3288,-87.8293,0.0,20.74,2 
DISL,ioos:station:DISL:BSCA:1,2011-10-05T14:00:00Z,30.3288,-87.8293,0.0,20.73,2 
DISL,ioos:station:DISL:BSCA:1,2011-10-05T15:30:00Z,30.3288,-87.8293,0.0,20.92,2 
DISL,ioos:station:DISL:BSCA:1,2011-10-05T16:00:00Z,30.3288,-87.8293,0.0,21.07,2 
DISL,ioos:station:DISL:BSCA:1,2011-10-05T16:30:00Z,30.3288,-87.8293,0.0,21.19,2 
DISL,ioos:station:DISL:BSCA:1,2011-10-05T17:00:00Z,30.3288,-87.8293,0.0,21.22,2 
DISL,ioos:station:DISL:BSCA:1,2011-10-05T17:30:00Z,30.3288,-87.8293,0.0,21.3,2 
DISL,ioos:station:DISL:BSCA:1,2011-10-05T18:00:00Z,30.3288,-87.8293,0.0,21.47,2 
DISL,ioos:station:DISL:BSCA:1,2011-10-05T18:30:00Z,30.3288,-87.8293,0.0,21.61,2 
DISL,ioos:station:DISL:BSCA:1,2011-10-05T19:00:00Z,30.3288,-87.8293,0.0,21.67,2 
DISL,ioos:station:DISL:BSCA:1,2011-10-05T19:30:00Z,30.3288,-87.8293,0.0,21.64,2 
DISL,ioos:station:DISL:BSCA:1,2011-10-05T20:00:00Z,30.3288,-87.8293,0.0,21.95,2 
DISL,ioos:station:DISL:BSCA:1,2011-10-05T20:30:00Z,30.3288,-87.8293,0.0,22.19,2 
DISL,ioos:station:DISL:BSCA:1,2011-10-05T21:00:00Z,30.3288,-87.8293,0.0,22.37,2 
DISL,ioos:station:DISL:BSCA:1,2011-10-05T21:30:00Z,30.3288,-87.8293,0.0,22.43,2 
DISL,ioos:station:DISL:BSCA:1,2011-10-05T22:00:00Z,30.3288,-87.8293,0.0,22.49,2 
DISL,ioos:station:DISL:BSCA:1,2011-10-05T22:30:00Z,30.3288,-87.8293,0.0,22.46,2 
DISL,ioos:station:DISL:BSCA:1,2011-10-05T23:00:00Z,30.3288,-87.8293,0.0,22.38,2 
DISL,ioos:station:DISL:BSCA:1,2011-10-05T23:30:00Z,30.3288,-87.8293,0.0,22.45,2 
DISL,ioos:station:DISL:BSCA:1,2011-10-06T00:00:00Z,30.3288,-87.8293,0.0,22.57,2 
DISL,ioos:station:DISL:BSCA:1,2011-10-06T00:30:00Z,30.3288,-87.8293,0.0,22.54,2 
DISL,ioos:station:DISL:BSCA:1,2011-10-06T01:00:00Z,30.3288,-87.8293,0.0,22.56,2 
DISL,ioos:station:DISL:BSCA:1,2011-10-06T01:30:00Z,30.3288,-87.8293,0.0,22.53,2 
DISL,ioos:station:DISL:BSCA:1,2011-10-06T02:00:00Z,30.3288,-87.8293,0.0,22.56,2 
DISL,ioos:station:DISL:BSCA:1,2011-10-06T02:30:00Z,30.3288,-87.8293,0.0,22.55,2 
DISL,ioos:station:DISL:BSCA:1,2011-10-06T03:00:00Z,30.3288,-87.8293,0.0,22.52,2 
DISL,ioos:station:DISL:BSCA:1,2011-10-06T03:30:00Z,30.3288,-87.8293,0.0,22.53,2 
DISL,ioos:station:DISL:BSCA:1,2011-10-06T04:00:00Z,30.3288,-87.8293,0.0,22.55,2 
DISL,ioos:station:DISL:BSCA:1,2011-10-06T04:30:00Z,30.3288,-87.8293,0.0,22.55,2 
DISL,ioos:station:DISL:BSCA:1,2011-10-06T05:00:00Z,30.3288,-87.8293,0.0,22.55,2 
DISL,ioos:station:DISL:BSCA:1,2011-10-06T05:30:00Z,30.3288,-87.8293,0.0,22.55,2 
DISL,ioos:station:DISL:BSCA:1,2011-10-06T06:00:00Z,30.3288,-87.8293,0.0,22.56,2 
DISL,ioos:station:DISL:BSCA:1,2011-10-06T06:30:00Z,30.3288,-87.8293,0.0,22.57,2 
DISL,ioos:station:DISL:BSCA:1,2011-10-06T07:00:00Z,30.3288,-87.8293,0.0,22.7,2 
DISL,ioos:station:DISL:BSCA:1,2011-10-06T07:30:00Z,30.3288,-87.8293,0.0,22.78,2 
DISL,ioos:station:DISL:BSCA:1,2011-10-06T08:00:00Z,30.3288,-87.8293,0.0,22.86,2 
DISL,ioos:station:DISL:BSCA:1,2011-10-06T08:30:00Z,30.3288,-87.8293,0.0,22.91,2 
DISL,ioos:station:DISL:BSCA:1,2011-10-06T09:00:00Z,30.3288,-87.8293,0.0,22.89,2 
DISL,ioos:station:DISL:BSCA:1,2011-10-06T09:30:00Z,30.3288,-87.8293,0.0,22.96,2 
DISL,ioos:station:DISL:BSCA:1,2011-10-06T10:00:00Z,30.3288,-87.8293,0.0,23.0,2 
DISL,ioos:station:DISL:BSCA:1,2011-10-06T10:30:00Z,30.3288,-87.8293,0.0,23.0,2 
DISL,ioos:station:DISL:BSCA:1,2011-10-06T11:00:00Z,30.3288,-87.8293,0.0,22.96,2 
DISL,ioos:station:DISL:BSCA:1,2011-10-06T11:30:00Z,30.3288,-87.8293,0.0,23.0,2 
DISL,ioos:station:DISL:BSCA:1,2011-10-06T12:00:00Z,30.3288,-87.8293,0.0,23.03,2 
DISL,ioos:station:DISL:BSCA:1,2011-10-06T12:30:00Z,30.3288,-87.8293,0.0,23.05,2 
DISL,ioos:station:DISL:BSCA:1,2011-10-06T13:00:00Z,30.3288,-87.8293,0.0,22.86,2 
DISL,ioos:station:DISL:BSCA:1,2011-10-06T13:30:00Z,30.3288,-87.8293,0.0,23.03,2 
DISL,ioos:station:DISL:BSCA:1,2011-10-06T14:00:00Z,30.3288,-87.8293,0.0,23.06,2 
DISL,ioos:station:DISL:BSCA:1,2011-10-06T14:30:00Z,30.3288,-87.8293,0.0,23.11,2 
DISL,ioos:station:DISL:BSCA:1,2011-10-06T15:00:00Z,30.3288,-87.8293,0.0,23.12,2 
DISL,ioos:station:DISL:BSCA:1,2011-10-06T15:30:00Z,30.3288,-87.8293,0.0,23.13,2 
DISL,ioos:station:DISL:BSCA:1,2011-10-06T16:00:00Z,30.3288,-87.8293,0.0,23.18,2 
DISL,ioos:station:DISL:BSCA:1,2011-10-06T16:30:00Z,30.3288,-87.8293,0.0,23.21,2 
DISL,ioos:station:DISL:BSCA:1,2011-10-06T17:00:00Z,30.3288,-87.8293,0.0,23.05,2 
DISL,ioos:station:DISL:BSCA:1,2011-10-06T17:30:00Z,30.3288,-87.8293,0.0,23.15,2 
DISL,ioos:station:DISL:BSCA:1,2011-10-06T18:00:00Z,30.3288,-87.8293,0.0,23.22,2 
DISL,ioos:station:DISL:BSCA:1,2011-10-06T18:30:00Z,30.3288,-87.8293,0.0,23.21,2 
DISL,ioos:station:DISL:BSCA:1,2011-10-06T19:00:00Z,30.3288,-87.8293,0.0,23.26,2 
DISL,ioos:station:DISL:BSCA:1,2011-10-06T19:30:00Z,30.3288,-87.8293,0.0,23.36,2 
DISL,ioos:station:DISL:BSCA:1,2011-10-06T20:00:00Z,30.3288,-87.8293,0.0,23.43,2 
DISL,ioos:station:DISL:BSCA:1,2011-10-06T20:30:00Z,30.3288,-87.8293,0.0,23.47,2 
DISL,ioos:station:DISL:BSCA:1,2011-10-06T21:00:00Z,30.3288,-87.8293,0.0,23.48,2 
DISL,ioos:station:DISL:BSCA:1,2011-10-06T21:30:00Z,30.3288,-87.8293,0.0,23.56,2 
DISL,ioos:station:DISL:BSCA:1,2011-10-06T22:00:00Z,30.3288,-87.8293,0.0,23.6,2 
DISL,ioos:station:DISL:BSCA:1,2011-10-06T22:30:00Z,30.3288,-87.8293,0.0,23.49,2 
DISL,ioos:station:DISL:BSCA:1,2011-10-06T23:00:00Z,30.3288,-87.8293,0.0,23.56,2 
DISL,ioos:station:DISL:BSCA:1,2011-10-06T23:30:00Z,30.3288,-87.8293,0.0,23.44,2 
DISL,ioos:station:DISL:BSCA:1,2011-10-07T00:00:00Z,30.3288,-87.8293,0.0,23.44,2 
DISL,ioos:station:DISL:BSCA:1,2011-10-07T00:30:00Z,30.3288,-87.8293,0.0,23.43,2 
DISL,ioos:station:DISL:BSCA:1,2011-10-07T01:00:00Z,30.3288,-87.8293,0.0,23.55,2 
DISL,ioos:station:DISL:BSCA:1,2011-10-07T01:30:00Z,30.3288,-87.8293,0.0,23.63,2 
DISL,ioos:station:DISL:BSCA:1,2011-10-07T02:00:00Z,30.3288,-87.8293,0.0,23.59,2 
DISL,ioos:station:DISL:BSCA:1,2011-10-07T02:30:00Z,30.3288,-87.8293,0.0,23.57,2 
DISL,ioos:station:DISL:BSCA:1,2011-10-07T03:00:00Z,30.3288,-87.8293,0.0,23.53,2 
DISL,ioos:station:DISL:BSCA:1,2011-10-07T03:30:00Z,30.3288,-87.8293,0.0,23.47,2 
DISL,ioos:station:DISL:BSCA:1,2011-10-07T04:00:00Z,30.3288,-87.8293,0.0,23.48,2 